User: anonymous   Login
Location: Peterborough
(44.3091°N, 78.3197°W)
Time: 08:48:31
(UTC-04:00)
Language:

Courier 1B - Orbit

View from above orbital plane
View from above orbital plane
View from above satellite
View from above satellite

Ground track
Ground track

The orbit data is extracted from the following two-line orbital elements,

1    58U 60013A   24146.98590995  .00000130  00000-0  70110-4 0  9991
2    58  28.3291 356.3853 0164827  99.3718 262.5501 13.46376403133159
Epoch (UTC): 25 May 2024 23:39:42
Eccentricity: 0.0164827
inclination: 28.3291°
perigee height: 962 km
apogee height: 1208 km
right ascension of ascending node: 356.3853°
argument of perigee: 99.3718°
revolutions per day: 13.46376403
mean anomaly at epoch: 262.5501°
orbit number at epoch: 13315

The dashed part of the orbit path shows where the satellite is in the earth's shadow,  

DLR